Regional Weather Roundup
Issued by NWS

Home | Current Version | Previous Version | Graphics & Text | Print | Product List | Glossary On
Versions: 1 2 3 4 5 6 7 8 9 10 11 12 13 14 15 16 17 18 19 20 21 22 23 24 25 26 27 28 29 30 31 32 33 34 35 36 37 38 39 40 41 42 43 44 45 46 47 48 49 50
000
ASUS43 KLSX 020459
RWRMO

WEATHER SUMMARY FOR MISSOURI
NATIONAL WEATHER SERVICE SPRINGFIELD MO
1200 AM CDT TUE SEP 02 2014

NOTE: "FAIR" INDICATES FEW OR NO CLOUDS BELOW 12,000 FEET WITH NO
       SIGNIFICANT WEATHER AND/OR OBSTRUCTIONS TO VISIBILITY.
       CURRENT SKY AND/OR WEATHER CONDITIONS ARE NOT AVAILABLE FOR
       CHILLICOTHE AND FARMINGTON.

MOZ001>031-035>038-043-044-053-054-020600-
...NORTHERN AND WESTERN MISSOURI...

CITY           SKY/WX    TMP DP  RH WIND       PRES   REMARKS
KANSAS CTY INT CLOUDY    70  69  97 SE5       29.90R
KANSAS C DTWN  CLOUDY    73  70  90 S7        29.89S
LEE`S SUMMIT   CLOUDY    71  69  93 E3        29.91F
ST JOSEPH      MOCLDY    65  64  97 CALM      29.89R
CHILLICOTHE      N/A     70  66  87 CALM      29.89S
KIRKSVILLE     CLOUDY    68  66  93 SE3       29.89F

$$
MOZ066>068-077>081-088>096-101>105-020600-
...SOUTHWEST MISSOURI...

CITY           SKY/WX    TMP DP  RH WIND       PRES   REMARKS
SPRINGFIELD    RAIN      77  72  84 S12       29.96R
JOPLIN         TSTM      71  66  84 S18G32    29.91F

$$
MOZ032>034-039>042-045>050-055>058-069>072-020600-
...CENTRAL MISSOURI...

CITY           SKY/WX    TMP DP  RH WIND       PRES   REMARKS
COLUMBIA       LGT RAIN  71  70  96 W6        29.94R
JEFFERSON CITY LGT RAIN  71  69  93 SW7       29.94R
ROLLA          LGT RAIN  72  69  90 W8        29.95R
SEDALIA        TSTM      72  70  93 SE6       29.94S FOG
WHITEMAN AFB   LGT RAIN  70  66  88 S9        29.93F
OSAGE BEACH    CLOUDY    72  68  88 NW3       29.95R

$$
MOZ051-052-059>065-020600-
...EAST CENTRAL MISSOURI...

CITY           SKY/WX    TMP DP  RH WIND       PRES   REMARKS
ST LOUIS INTL  TSTM      70  67  90 E8        29.89F
SPIRIT OF STL  RAIN      68  67  96 E5        29.92R FOG
ST CHARLES     CLOUDY    68  68 100 SW9       29.92R

$$
MOZ072>076-082>087-097>100-106>115-020600-
...SOUTH CENTRAL AND SOUTHEAST MISSOURI...

CITY           SKY/WX    TMP DP  RH WIND       PRES   REMARKS
CAPE GIRARDEAU CLOUDY    79  72  79 S9        29.94R
FARMINGTON     CLOUDY    77  70  78 S14G20    29.94F
POPLAR BLUFF   CLOUDY    75  70  84 S5        29.93R
WEST PLAINS    CLOUDY    78  70  76 S9        29.98S

$$


USA.gov is the U.S. government's official web portal to all federal, state and local government web resources and services.